Regional Weather Roundup
Issued by NWS

Home | Current Version | Previous Version | Graphics & Text | Print | Product List | Glossary On
Versions: 1 2 3 4 5 6 7 8 9 10 11 12 13 14 15 16 17 18 19 20 21 22 23 24 25 26 27 28 29 30 31 32 33 34 35 36 37 38 39 40 41 42 43 44 45 46 47 48 49 50
178
ASUS43 KMKX 191811
RWRWI

WISCONSIN REGIONAL WEATHER ROUNDUP
NATIONAL WEATHER SERVICE MILWAUKEE/SULLIVAN WI
1200 PM CST SUN FEB 19 2017

NOTE: "FAIR" INDICATES FEW OR NO CLOUDS BELOW 12,000 FEET WITH NO
SIGNIFICANT WEATHER AND/OR OBSTRUCTIONS TO VISIBILITY.

WIZ001-002-006>008-014>016-023>028-191900-
NORTHWEST WISCONSIN

CITY           SKY/WX    TMP DP  RH WIND       PRES   REMARKS
SUPERIOR ARPT  MOSUNNY   42  32  68 E10       29.99S
6HR MIN TEMP:  25; 6HR MAX TEMP:  42;

ASHLAND        SUNNY     45  33  63 N7        30.00F
6HR MIN TEMP:  27; 6HR MAX TEMP:  46;

HAYWARD        MOSUNNY   53  28  38 VRB6      29.98S
6HR MIN TEMP:  25; 6HR MAX TEMP:  53;

SIREN          MOSUNNY   55  32  42 SE8       29.95F
6HR MIN TEMP:  26; 6HR MAX TEMP:  55;

CUMBERLAND     MOSUNNY   48  36  61 SE7       29.97F
RICE LAKE      MOSUNNY   50  36  57 CALM      29.99F
6HR MIN TEMP:  28; 6HR MAX TEMP:  50;

CHETEK         MOSUNNY   52  37  54 SE8       29.99S
6HR MIN TEMP:  26; 6HR MAX TEMP:  52;

LADYSMITH      MOSUNNY   51  33  50 CALM      30.01S
6HR MIN TEMP:  28; 6HR MAX TEMP:  51;

EAU CLAIRE     SUNNY     54  37  52 S12       29.98F
6HR MIN TEMP:  25; 6HR MAX TEMP:  54;

MENOMONIE      SUNNY     51  38  61 SE7       29.98F
6HR MIN TEMP:  28; 6HR MAX TEMP:  51;

NEW RICHMOND   SUNNY     55  36  50 SE9       29.94F
6HR MIN TEMP:  30; 6HR MAX TEMP:  55;

OSCEOLA        SUNNY     56  37  48 SE12      29.96F
6HR MIN TEMP:  28; 6HR MAX TEMP:  56;

$$

WIZ003>005-009-010-017-018-191900-
NORTH CENTRAL WISCONSIN

CITY           SKY/WX    TMP DP  RH WIND       PRES   REMARKS
MANITOWISH WTR MOSUNNY   46  29  52 CALM      30.00F
6HR MIN TEMP:  23; 6HR MAX TEMP:  46;

ARBOR VITAE    SUNNY     51  32  47 S3        30.00S
6HR MIN TEMP:  27; 6HR MAX TEMP:  51;

WOODRUFF       SUNNY     51  32  47 S3        30.00S
6HR MIN TEMP:  27; 6HR MAX TEMP:  51;

RHINELANDER    SUNNY     50  30  46 CALM      30.01F
6HR MIN TEMP:  28; 6HR MAX TEMP:  50;

EAGLE RIVER    SUNNY     47  28  45 CALM      30.01S
6HR MIN TEMP:  25; 6HR MAX TEMP:  47;

LAND O LAKES   SUNNY     49  28  44 S3        30.02S
6HR MIN TEMP:  25; 6HR MAX TEMP:  49;

PHILLIPS       MOSUNNY   52  31  45 CALM      29.99S
6HR MIN TEMP:  24; 6HR MAX TEMP:  52;

TOMAHAWK       SUNNY     53  29  39 CALM      30.01S
6HR MIN TEMP:  26; 6HR MAX TEMP:  53;

MEDFORD        MOSUNNY   46  32  59 S6        30.00F
6HR MIN TEMP:  28; 6HR MAX TEMP:  46;

MERRILL        NOT AVBL
$$

WIZ029-030-035-036-043>047-191900-
CENTRAL WISCONSIN

CITY           SKY/WX    TMP DP  RH WIND       PRES   REMARKS
WAUSAU         SUNNY     52  31  44 CALM      30.00S
6HR MIN TEMP:  29; 6HR MAX TEMP:  52;

MOSINEE        MOSUNNY   48  34  57 CALM      30.03S
MARSHFIELD     MOSUNNY   48  33  56 S6        30.01R
6HR MIN TEMP:  30; 6HR MAX TEMP:  49;

STEVENS POINT  MOSUNNY   50  30  46 S5        30.03S
6HR MIN TEMP:  25; 6HR MAX TEMP:  50;

WAUPACA        SUNNY     56  34  44 CALM      30.03F
6HR MIN TEMP:  33; 6HR MAX TEMP:  56;

WAUTOMA        SUNNY     58  34  40 S7        30.04F
6HR MIN TEMP:  27; 6HR MAX TEMP:  58;

WISC RAPIDS    MOSUNNY   57  33  40 VRB3      30.03S
6HR MIN TEMP:  27; 6HR MAX TEMP:  57;

CAMP DOUGLAS   PTSUNNY   59  39  47 VRB3      30.02S
$$

WIZ011>013-019>022-031-037>040-048>050-191900-
NORTHEAST WISCONSIN

CITY           SKY/WX    TMP DP  RH WIND       PRES   REMARKS
ANTIGO         CLOUDY    47  29  51 CALM      30.02F
6HR MIN TEMP:  24; 6HR MAX TEMP:  47;

SHAWANO        SUNNY     53  32  46 NE3       30.04F
6HR MIN TEMP:  33; 6HR MAX TEMP:  53;

OCONTO         SUNNY     51  31  45 SE3       30.04F
6HR MIN TEMP:  28; 6HR MAX TEMP:  52;

STURGEON BAY   SUNNY     49  31  49 NE3       30.05F
6HR MIN TEMP:  36; 6HR MAX TEMP:  50;

GREEN BAY      SUNNY     54  35  48 SE3       30.04S
6HR MIN TEMP:  32; 6HR MAX TEMP:  56;

MANITOWOC      SUNNY     52  33  48 MISG      30.06S
6HR MIN TEMP:  41; 6HR MAX TEMP:  54;

APPLETON       MOSUNNY   54  32  43 SE7       30.03S
CLINTONVILLE   SUNNY     52  32  46 SW3       30.03F
OSHKOSH        SUNNY     51  35  54 NE5       30.04F
6HR MIN TEMP:  33; 6HR MAX TEMP:  52;

$$

WIZ032>034-041-042-053>061-191900-
SOUTHWEST WISCONSIN

CITY           SKY/WX    TMP DP  RH WIND       PRES   REMARKS
LA CROSSE      SUNNY     55  35  47 S7        30.00F
6HR MIN TEMP:  28; 6HR MAX TEMP:  55;

SPARTA         SUNNY     60  32  34 S9        30.02F
6HR MIN TEMP:  22; 6HR MAX TEMP:  60;

VIROQUA        SUNNY     54  33  44 S9        30.02S
6HR MIN TEMP:  37; 6HR MAX TEMP:  55;

BOSCOBEL       SUNNY     58  34  40 CALM      30.03F
6HR MIN TEMP:  24; 6HR MAX TEMP:  58;

PRAIRIE DU CHI SUNNY     54  35  49 S3        30.02F
6HR MIN TEMP:  27; 6HR MAX TEMP:  54;

PLATTEVILLE    SUNNY     59  44  58 S8        30.04F
6HR MIN TEMP:  32; 6HR MAX TEMP:  59;

$$

WIZ056-057-062-063-064-067-068-191900-
SOUTH CENTRAL WISCONSIN

CITY           SKY/WX    TMP DP  RH WIND       PRES   REMARKS
REEDSBURG      SUNNY     58  35  42 SW8       30.04S
BARABOO/DELLS  SUNNY     57  33  39 S7        30.04S
6HR MIN TEMP:  30; 6HR MAX TEMP:  57;

LONE ROCK      SUNNY     57  36  45 E5        30.04F
6HR MIN TEMP:  25; 6HR MAX TEMP:  57;

MINERAL POINT  SUNNY     59  39  47 SE12      30.03F
MADISON        PTSUNNY   56  35  45 S6        30.05S
6HR MIN TEMP:  27; 6HR MAX TEMP:  56;

MIDDLETON      SUNNY     60  33  36 S7        30.05F
6HR MIN TEMP:  30; 6HR MAX TEMP:  60;

WATERTOWN      SUNNY     58  34  40 SE3       30.05S
6HR MIN TEMP:  25; 6HR MAX TEMP:  58;

MONROE         SUNNY     59  32  36 SE7       30.04F
JANESVILLE     SUNNY     63  30  29 SE5       30.05S
$$

WIZ051-052-058>065-066-070>072-191900-
SOUTHEAST WISCONSIN

CITY           SKY/WX    TMP DP  RH WIND       PRES   REMARKS
MILWAUKEE      MOSUNNY   58  31  35 E5        30.07S
6HR MIN TEMP:  40; 6HR MAX TEMP:  58;

WAUKESHA       SUNNY     59  27  29 E6        30.06S
MILWAUKEE/TIMM SUNNY     57  25  28 E5        30.06S
RACINE         SUNNY     58  31  35 NE7       30.07S
6HR MIN TEMP:  40; 6HR MAX TEMP:  58;

KENOSHA        SUNNY     60  31  33 E7        30.05F
6HR MIN TEMP:  32; 6HR MAX TEMP:  61;

FOND DU LAC    SUNNY     55  36  48 S3        30.04F
6HR MIN TEMP:  31; 6HR MAX TEMP:  55;

SHEBOYGAN      SUNNY     54  32  43 S5        30.05S
6HR MIN TEMP:  36; 6HR MAX TEMP:  54;

WEST BEND      SUNNY     59  30  33 CALM      30.04F
JUNEAU         SUNNY     55  37  50 SE3       30.06S
6HR MIN TEMP:  31; 6HR MAX TEMP:  55;

$$

LSZ147-162-191900-
LAKE SUPERIOR

STATION/POSITION TIME  TEMP    WIND        PRES    WAVE
                       AIR SEA DIR/SP/G            HT/PER
                 (UTC) (F)     (DEG/KT/KT) (MB)    (FT/S)
DEVILS ISLAND    1800   36      50/  9/  9 1017.5R
PORT WING        1730   35      20/ 10/ 11 1015.9F
SAXON HARBOR     1740   36      20/  2/  2 1016.6R
$$

LMZ867-665-643>646-191900-
LAKE MICHIGAN

STATION/POSITION TIME  TEMP    WIND        PRES    WAVE
                       AIR SEA DIR/SP/G            HT/PER
                 (UTC) (F)     (DEG/KT/KT) (MB)    (FT/S)
CHAMBERS ISLAND  1740   44      50/  6/  7 1017.3S
NORTHPORT PIER   1740   42     320/  5/  6 1017.9R
SISTER BAY       1705   48        CALM       N/A
KEWAUNEE LAKESHO 1748   46      80/  3/  7 1017.0F
SHEBOYGAN LAKESH 1800   47      70/  4/  4 1017.7S
P



USA.gov is the U.S. government's official web portal to all federal, state and local government web resources and services.